Fairfield, IA

11:49 PM CST on February 24, 2018 (GMT -0600)
Fairfield Municipal

Weather History for KFFL - February, 2013

Change the Weather History Date:

Tuesday, February 19, 2013

  Actual Average Record
Temperature  
Mean Temperature 17 °F -  
Max Temperature 24 °F 39 °F 71 °F (2017)
Min Temperature 10 °F 20 °F -12 °F (1978)
Degree Days  
Heating Degree Days 48    
Moisture  
Dew Point 7 °F    
Average Humidity 65    
Maximum Humidity 79    
Minimum Humidity 46    
Precipitation  
Precipitation 0.00 in - - ()
Sea Level Pressure  
Sea Level Pressure 30.11 in    
Wind  
Wind Speed 23 mph (WNW)    
Max Wind Speed 30 mph    
Max Gust Speed 44 mph    
Visibility 10 miles    
Events Snow    
Averages and records for this station are not official NWS values.
T = Trace of Precipitation, MM = Missing Value Source: NWS Daily Summary

Daily Weather History Graph

Daily Weather History Graph

Search for Another Location

Airport or City:

Trip Planner

Search our weather history database for the weather conditions in past years. The results will help you decide how hot, cold, wet, or windy it might be!

Date:

Astronomy

Feb. 19, 2013 Rise Set
Actual Time 6:56 AM CST 5:47 PM CST
Civil Twilight 6:28 AM CST 6:15 PM CST
Nautical Twilight 5:56 AM CST 6:47 PM CST
Astronomical Twilight 5:24 AM CST 7:19 PM CST
Moon 12:17 PM CST (2/19) 2:30 AM CST (2/19)
Length of Visible Light 11h 46m
Length of Day
10h 50m
Waxing Gibbous, 67% of the Moon is Illuminated
Feb 19
Waxing Gibbous
Feb 25
Full
Mar 4
Last Quarter
Mar 11
New
Mar 19
First Quarter

Hourly Weather History & Observations

Time (CST) Temp. Windchill Dew Point Humidity Pressure Visibility Wind Dir Wind Speed Gust Speed Precip Events Conditions
12:15 AM 17.6 °F -0.3 °F 10.4 °F 73% 29.88 in 10.0 mi WNW 24.2 mph 33.4 mph N/A   Scattered Clouds
12:35 AM 17.6 °F 0.9 °F 10.4 °F 73% 29.89 in 10.0 mi West 20.7 mph 28.8 mph N/A   Scattered Clouds
12:55 AM 17.6 °F -0.3 °F 10.4 °F 73% 29.90 in 10.0 mi West 24.2 mph 32.2 mph N/A   Overcast
1:15 AM 17.6 °F -0.6 °F 10.4 °F 73% 29.91 in 10.0 mi WNW 25.3 mph 39.1 mph N/A   Overcast
1:35 AM 17.6 °F -1.3 °F 10.4 °F 73% 29.91 in 10.0 mi WNW 27.6 mph 38.0 mph N/A   Overcast
1:55 AM 17.6 °F -0.3 °F 10.4 °F 73% 29.91 in 10.0 mi WNW 24.2 mph 29.9 mph N/A   Overcast
2:15 AM 17.6 °F -1.0 °F 10.4 °F 73% 29.92 in 10.0 mi WNW 26.5 mph 32.2 mph N/A   Overcast
2:35 AM 17.6 °F -1.0 °F 10.4 °F 73% 29.92 in 7.0 mi WNW 26.5 mph 33.4 mph N/A Snow Light Snow
2:55 AM 17.6 °F -1.6 °F 8.6 °F 68% 29.93 in 7.0 mi West 28.8 mph 36.8 mph N/A Snow Light Snow
3:15 AM 17.6 °F -1.6 °F 8.6 °F 68% 29.93 in 10.0 mi WNW 28.8 mph 36.8 mph N/A   Overcast
3:35 AM 15.8 °F -3.4 °F 8.6 °F 73% 29.94 in 10.0 mi WNW 26.5 mph 36.8 mph N/A   Overcast
3:55 AM 15.8 °F -3.1 °F 6.8 °F 68% 29.95 in 10.0 mi West 25.3 mph 35.7 mph N/A   Overcast
4:15 AM 15.8 °F -3.1 °F 6.8 °F 68% 29.95 in 10.0 mi West 25.3 mph 32.2 mph N/A   Overcast
4:35 AM 15.8 °F -4.4 °F 6.8 °F 68% 29.96 in 10.0 mi WNW 29.9 mph 43.7 mph N/A   Overcast
4:55 AM 14.0 °F -5.8 °F 6.8 °F 73% 29.97 in 10.0 mi West 26.5 mph 39.1 mph N/A   Overcast
5:15 AM 12.2 °F -7.5 °F 6.8 °F 79% 29.98 in 10.0 mi WNW 24.2 mph 38.0 mph N/A   Overcast
5:55 AM 12.2 °F -7.5 °F 6.8 °F 79% 30.00 in 10.0 mi West 24.2 mph 32.2 mph N/A   Mostly Cloudy
6:15 AM 10.4 °F -7.2 °F 3.2 °F 73% 30.02 in 7.0 mi WNW 17.3 mph 32.2 mph N/A   Mostly Cloudy
6:35 AM 10.4 °F -11.4 °F 3.2 °F 73% 30.02 in 10.0 mi WNW 28.8 mph 35.7 mph N/A   Scattered Clouds
6:55 AM 10.4 °F -10.3 °F 3.2 °F 73% 30.03 in 10.0 mi WNW 25.3 mph 34.5 mph N/A   Clear
7:15 AM 10.4 °F -11.0 °F 3.2 °F 73% 30.03 in 10.0 mi WNW 27.6 mph 34.5 mph N/A   Scattered Clouds
7:35 AM 10.4 °F -11.0 °F 3.2 °F 73% 30.05 in 10.0 mi WNW 27.6 mph 41.4 mph N/A   Scattered Clouds
7:55 AM 12.2 °F -7.9 °F 3.2 °F 67% 30.06 in 10.0 mi WNW 25.3 mph 38.0 mph N/A   Scattered Clouds
8:15 AM 12.2 °F -8.9 °F 3.2 °F 67% 30.08 in 10.0 mi WNW 28.8 mph 38.0 mph N/A   Scattered Clouds
8:35 AM 12.2 °F -8.2 °F 5.0 °F 73% 30.08 in 10.0 mi WNW 26.5 mph 40.3 mph N/A   Mostly Cloudy
8:55 AM 14.0 °F -6.2 °F 5.0 °F 67% 30.09 in 10.0 mi WNW 27.6 mph 36.8 mph N/A   Mostly Cloudy
9:35 AM 15.8 °F -3.4 °F 6.8 °F 68% 30.09 in 10.0 mi WNW 26.5 mph 35.7 mph N/A   Overcast
9:55 AM 17.6 °F 0.1 °F 6.8 °F 63% 30.10 in 10.0 mi WNW 23.0 mph 34.5 mph N/A   Mostly Cloudy
10:15 AM 17.6 °F -1.6 °F 6.8 °F 63% 30.11 in 10.0 mi WNW 28.8 mph 36.8 mph N/A   Scattered Clouds
10:35 AM 19.4 °F 2.5 °F 8.6 °F 63% 30.11 in 10.0 mi WNW 23.0 mph 33.4 mph N/A   Mostly Cloudy
10:55 AM 19.4 °F 2.1 °F 8.6 °F 63% 30.12 in 10.0 mi West 24.2 mph 34.5 mph N/A   Overcast
11:15 AM 19.4 °F 1.1 °F 8.6 °F 63% 30.12 in 10.0 mi WNW 27.6 mph 35.7 mph N/A   Scattered Clouds
11:35 AM 19.4 °F 1.1 °F 8.6 °F 63% 30.13 in 10.0 mi WNW 27.6 mph 35.7 mph N/A   Scattered Clouds
11:55 AM 21.2 °F 3.5 °F 8.6 °F 58% 30.13 in 10.0 mi West 27.6 mph 36.8 mph N/A   Scattered Clouds
12:15 PM 21.2 °F 5.6 °F 8.6 °F 58% 30.13 in 10.0 mi WNW 20.7 mph 35.7 mph N/A   Mostly Cloudy
12:35 PM 21.2 °F 3.3 °F 10.4 °F 63% 30.13 in 10.0 mi WNW 28.8 mph 34.5 mph N/A   Mostly Cloudy
12:55 PM 23.0 °F 6.0 °F 10.4 °F 59% 30.13 in 10.0 mi West 27.6 mph 35.7 mph N/A   Mostly Cloudy
1:15 PM 21.2 °F 4.2 °F 8.6 °F 58% 30.13 in 10.0 mi West 25.3 mph 36.8 mph N/A   Mostly Cloudy
1:35 PM 23.0 °F 6.0 °F 10.4 °F 59% 30.13 in 10.0 mi WNW 27.6 mph 34.5 mph N/A   Mostly Cloudy
1:55 PM 24.8 °F 9.3 °F 10.4 °F 54% 30.14 in 10.0 mi West 24.2 mph 33.4 mph N/A   Mostly Cloudy
2:15 PM 24.8 °F 9.0 °F 10.4 °F 54% 30.14 in 10.0 mi WNW 25.3 mph 32.2 mph N/A   Mostly Cloudy
2:35 PM 24.8 °F 9.3 °F 8.6 °F 50% 30.15 in 10.0 mi WNW 24.2 mph 38.0 mph N/A   Scattered Clouds
2:55 PM 24.8 °F 9.3 °F 8.6 °F 50% 30.15 in 10.0 mi WNW 24.2 mph 33.4 mph N/A   Scattered Clouds
3:15 PM 24.8 °F 8.7 °F 8.6 °F 50% 30.16 in 10.0 mi WNW 26.5 mph 32.2 mph N/A   Scattered Clouds
3:35 PM 24.8 °F 9.3 °F 8.6 °F 50% 30.16 in 10.0 mi WNW 24.2 mph 31.1 mph N/A   Scattered Clouds
3:55 PM 24.8 °F 9.6 °F 8.6 °F 50% 30.17 in 10.0 mi WNW 23.0 mph 32.2 mph N/A   Clear
4:15 PM 24.8 °F 9.0 °F 8.6 °F 50% 30.18 in 10.0 mi WNW 25.3 mph 33.4 mph N/A   Clear
4:35 PM 24.8 °F 8.7 °F 6.8 °F 46% 30.19 in 10.0 mi WNW 26.5 mph 32.2 mph N/A   Clear
4:55 PM 23.0 °F 8.3 °F 6.8 °F 50% 30.20 in 10.0 mi WNW 19.6 mph 27.6 mph N/A   Clear
5:15 PM 21.2 °F 4.9 °F 6.8 °F 54% 30.21 in 10.0 mi WNW 23.0 mph 27.6 mph N/A   Clear
6:35 PM 19.4 °F 6.6 °F 6.8 °F 58% 30.22 in 10.0 mi WNW 12.7 mph 20.7 mph N/A   Clear
6:55 PM 17.6 °F 5.0 °F 6.8 °F 63% 30.23 in 10.0 mi WNW 11.5 mph - N/A   Clear
7:15 PM 17.6 °F 5.7 °F 6.8 °F 63% 30.23 in 10.0 mi WNW 10.4 mph - N/A   Clear
7:35 PM 17.6 °F 5.7 °F 6.8 °F 63% 30.24 in 10.0 mi WNW 10.4 mph - N/A   Clear
7:55 PM 17.6 °F 5.0 °F 6.8 °F 63% 30.24 in 10.0 mi WNW 11.5 mph - N/A   Clear
8:15 PM 17.6 °F 4.3 °F 6.8 °F 63% 30.24 in 10.0 mi WNW 12.7 mph - N/A   Clear
8:35 PM 15.8 °F 3.4 °F 6.8 °F 68% 30.26 in 10.0 mi WNW 10.4 mph - N/A   Clear
8:55 PM 15.8 °F 5.1 °F 6.8 °F 68% 30.26 in 10.0 mi WNW 8.1 mph - N/A   Clear
9:15 PM 15.8 °F 2.1 °F 6.8 °F 68% 30.26 in 10.0 mi WNW 12.7 mph - N/A   Clear
9:35 PM 15.8 °F 2.7 °F 6.8 °F 68% 30.27 in 10.0 mi WNW 11.5 mph - N/A   Clear
9:55 PM 15.8 °F 2.7 °F 6.8 °F 68% 30.27 in 10.0 mi WNW 11.5 mph - N/A   Clear
10:15 PM 15.8 °F 0.9 °F 5.0 °F 62% 30.27 in 10.0 mi NW 15.0 mph 18.4 mph N/A   Clear
10:35 PM 14.0 °F -1.4 °F 6.8 °F 73% 30.28 in 10.0 mi NNW 15.0 mph 19.6 mph N/A   Clear
10:55 PM 14.0 °F 0.5 °F 5.0 °F 67% 30.30 in 10.0 mi NW 11.5 mph 20.7 mph N/A   Clear
11:15 PM 12.2 °F -3.1 °F 5.0 °F 73% 30.31 in 10.0 mi NNW 13.8 mph - N/A   Clear
11:35 PM 12.2 °F -2.5 °F 3.2 °F 67% 30.32 in 10.0 mi NNW 12.7 mph - N/A   Clear
11:55 PM 10.4 °F -5.4 °F 3.2 °F 73% 30.33 in 10.0 mi NNW 13.8 mph - N/A   Clear